Change the Weather History Date:

Friday, November 2, 2012

  Actual Average Record
Temperature  
Mean Temperature 86 °F -  
Max Temperature 94 °F 82 °F 94 °F (2012)
Min Temperature 77 °F 72 °F 46 °F (1999)
Cooling Degree Days 20    
Growing Degree Days 36 (Base 50)    
Moisture  
Dew Point 76 °F    
Average Humidity 75    
Maximum Humidity 89    
Minimum Humidity 46    
Precipitation  
Precipitation 0.00 in 0.51 in - ()
Sea Level Pressure  
Sea Level Pressure 29.71 in    
Wind  
Wind Speed 8 mph ()    
Max Wind Speed 16 mph    
Max Gust Speed 23 mph    
Visibility 4.0 miles    
Events      
Averages and records for this station are not official NWS values.
T = Trace of Precipitation, MM = Missing Value Source: Averaged Metar Reports

Daily Weather History Graph

Daily Weather History Graph

Search for Another Location

Airport or City:

Trip Planner

Search our weather history database for the weather conditions in past years. The results will help you decide how hot, cold, wet, or windy it might be!

Date:

Astronomy

Nov. 02, 2012 Rise Set
Actual Time 6:03 AM IST 5:42 PM IST
Civil Twilight 5:41 AM IST 6:04 PM IST
Nautical Twilight 5:16 AM IST 6:29 PM IST
Astronomical Twilight 4:50 AM IST 6:54 PM IST
Moon 8:24 PM IST (11/2) 8:41 AM IST (11/2)
Length of Visible Light 12h 22m
Length of Day
11h 38m
Waning Gibbous, 90% of the Moon is Illuminated
Nov 2
Waning Gibbous
Nov 7
Last Quarter
Nov 14
New
Nov 20
First Quarter
Nov 28
Full

Hourly Weather History & Observations

Time (IST) Temp. Heat Index Dew Point Humidity Pressure Visibility Wind Dir Wind Speed Gust Speed Precip Events Conditions
12:10 AM 80.6 °F 86.2 °F 75.2 °F 84% 29.71 in 3.7 mi South 10.4 mph - N/A   Scattered Clouds
12:40 AM 80.6 °F 86.2 °F 75.2 °F 84% 29.71 in 3.7 mi South 8.1 mph - N/A   Scattered Clouds
1:10 AM 80.6 °F 86.2 °F 75.2 °F 84% 29.71 in 3.7 mi South 6.9 mph - N/A   Scattered Clouds
1:40 AM 80.6 °F 86.2 °F 75.2 °F 84% 29.71 in 3.7 mi South 6.9 mph - N/A   Scattered Clouds
2:10 AM 80.6 °F 86.2 °F 75.2 °F 84% 29.71 in 3.7 mi South 6.9 mph - N/A   Scattered Clouds
2:40 AM 80.6 °F 86.2 °F 75.2 °F 84% 29.68 in 3.7 mi South 5.8 mph - N/A   Mostly Cloudy
3:10 AM 80.6 °F 86.2 °F 75.2 °F 84% 29.68 in 3.7 mi South 5.8 mph - N/A   Mostly Cloudy
3:40 AM 80.6 °F 86.2 °F 75.2 °F 84% 29.71 in 3.7 mi South 5.8 mph - N/A   Mostly Cloudy
4:10 AM 80.6 °F 86.2 °F 75.2 °F 84% 29.68 in 3.7 mi South 5.8 mph - N/A   Mostly Cloudy
4:40 AM 80.6 °F 86.2 °F 75.2 °F 84% 29.71 in 3.7 mi SSW 5.8 mph - N/A   Mostly Cloudy
5:10 AM 80.6 °F 86.2 °F 75.2 °F 84% 29.71 in 3.7 mi South 6.9 mph - N/A   Scattered Clouds
5:30 AM 79 °F - 76 °F 87% 29.74 in 2 mi SSW 4.6 mph - -   Scattered Clouds
5:40 AM 80.6 °F 86.2 °F 75.2 °F 84% 29.71 in 3.7 mi South 6.9 mph - N/A   Scattered Clouds
6:10 AM 78.8 °F - 75.2 °F 89% 29.74 in 3.7 mi SSW 8.1 mph - N/A   Scattered Clouds
6:40 AM 78.8 °F - 75.2 °F 89% 29.74 in 2.5 mi SSW 6.9 mph - N/A   Haze
7:10 AM 80.6 °F 86.2 °F 75.2 °F 84% 29.74 in 2.5 mi South 3.5 mph - N/A   Haze
7:40 AM 80.6 °F 86.2 °F 75.2 °F 84% 29.77 in 2.5 mi SSW 10.4 mph - N/A   Haze
8:30 AM 83 °F - 75 °F 70% 29.81 in 6 mi SW 4.6 mph - -   Scattered Clouds
8:40 AM 84.2 °F 90.9 °F 73.4 °F 70% 29.77 in 3.7 mi SSW 11.5 mph 23.0 mph N/A   Scattered Clouds
9:10 AM 86.0 °F 95.1 °F 75.2 °F 70% 29.77 in 3.7 mi SSW 13.8 mph - N/A   Scattered Clouds
9:40 AM 86.0 °F 93.4 °F 73.4 °F 66% 29.77 in 3.7 mi SSW 13.8 mph - N/A   Scattered Clouds
10:10 AM 87.8 °F 95.6 °F 73.4 °F 62% 29.77 in 4.3 mi South 16.1 mph - N/A   Scattered Clouds
10:40 AM 87.8 °F 95.6 °F 73.4 °F 62% 29.74 in 4.3 mi South 13.8 mph - N/A   Scattered Clouds
11:10 AM 89.6 °F 98.2 °F 73.4 °F 59% 29.74 in 4.3 mi South 11.5 mph 23.0 mph N/A   Scattered Clouds
11:30 AM 90 °F - 75 °F 52% 29.77 in 6 mi SW 6.9 mph - -   Scattered Clouds
11:40 AM 89.6 °F 98.2 °F 73.4 °F 59% 29.71 in 5.0 mi South 11.5 mph 23.0 mph N/A   Scattered Clouds
12:10 PM 91.4 °F 100.1 °F 73.4 °F 55% 29.71 in 5.0 mi SSW 11.5 mph 23.0 mph N/A   Partly Cloudy
12:40 PM 91.4 °F 100.1 °F 73.4 °F 55% 29.68 in 5.0 mi South 11.5 mph 23.0 mph N/A   Partly Cloudy
1:10 PM 91.4 °F 98.4 °F 71.6 °F 52% 29.68 in 5.0 mi SW 11.5 mph 23.0 mph N/A   Partly Cloudy
1:40 PM 91.4 °F 100.1 °F 73.4 °F 55% 29.68 in 5.0 mi SW 11.5 mph - N/A   Partly Cloudy
2:10 PM 91.4 °F 100.1 °F 73.4 °F 55% 29.65 in 5.0 mi SSW 11.5 mph - N/A   Partly Cloudy
2:30 PM 91 °F - 73 °F 46% 29.69 in 6 mi SW 4.6 mph - -   Scattered Clouds
2:40 PM 91.4 °F 98.4 °F 71.6 °F 52% 29.65 in 5.0 mi South 9.2 mph - N/A   Partly Cloudy
3:10 PM 89.6 °F 102.2 °F 77.0 °F 66% 29.65 in 5.0 mi SE 9.2 mph - N/A   Partly Cloudy
3:40 PM 87.8 °F 99.7 °F 77.0 °F 70% 29.65 in 5.0 mi SE 13.8 mph - N/A   Partly Cloudy
4:10 PM 86.0 °F 96.9 °F 77.0 °F 74% 29.65 in 5.0 mi SSE 11.5 mph - N/A   Partly Cloudy
4:40 PM 86.0 °F 96.9 °F 77.0 °F 74% 29.65 in 5.0 mi SSE 13.8 mph - N/A   Partly Cloudy
5:10 PM 84.2 °F 94.1 °F 77.0 °F 79% 29.65 in 4.3 mi South 10.4 mph - N/A   Partly Cloudy
5:30 PM 86 °F - 79 °F 74% 29.70 in 6 mi SSE 4.6 mph - -   Scattered Clouds
5:40 PM 84.2 °F 94.1 °F 77.0 °F 79% 29.68 in 3.7 mi SSE 11.5 mph - N/A   Scattered Clouds
6:10 PM 84.2 °F 94.1 °F 77.0 °F 79% 29.68 in 3.7 mi SSE 11.5 mph - N/A   Scattered Clouds
6:40 PM 84.2 °F 94.1 °F 77.0 °F 79% 29.68 in 3.7 mi SE 11.5 mph - N/A   Scattered Clouds
7:10 PM 82.4 °F 90.9 °F 77.0 °F 84% 29.71 in 3.7 mi SSE 11.5 mph - N/A   Scattered Clouds
7:40 PM 82.4 °F 92.4 °F 78.8 °F 89% 29.71 in 3.7 mi SSE 11.5 mph - N/A   Scattered Clouds
8:10 PM 82.4 °F 90.9 °F 77.0 °F 84% 29.74 in 3.7 mi SSE 11.5 mph - N/A   Scattered Clouds
8:30 PM 86 °F - 79 °F 75% 29.72 in 2 mi SSE 3.5 mph - -   Partly Cloudy
8:40 PM 82.4 °F 90.9 °F 77.0 °F 84% 29.74 in 3.7 mi SSE 11.5 mph - N/A   Scattered Clouds
9:10 PM 82.4 °F 90.9 °F 77.0 °F 84% 29.74 in 3.7 mi SSE 8.1 mph 19.6 mph N/A   Scattered Clouds
9:40 PM 82.4 °F 90.9 °F 77.0 °F 84% 29.74 in 3.7 mi South 11.5 mph - N/A   Scattered Clouds
10:10 PM 82.4 °F 90.9 °F 77.0 °F 84% 29.74 in 3.7 mi SSE 13.8 mph - N/A   Scattered Clouds
10:40 PM 82.4 °F 90.9 °F 77.0 °F 84% 29.74 in 3.7 mi South 13.8 mph - N/A   Partly Cloudy
11:10 PM 82.4 °F 90.9 °F 77.0 °F 84% 29.74 in 3.7 mi SSE 11.5 mph 23.0 mph N/A   Scattered Clouds
11:30 PM 85 °F - 79 °F 77% 29.70 in 2 mi SE 4.6 mph - -   Mostly Cloudy
11:40 PM 82.4 °F 90.9 °F 77.0 °F 84% 29.74 in 3.7 mi South 11.5 mph - N/A   Scattered Clouds